Skip Page Navigation
NASA JPL Caltech
NASA Logo - Jet Propulsion Laboratory + View the NASA Portal
+ Center for Near-Earth Object Studies
JPL Home Earth Solar System Stars & Galaxies Technology
JPL Solar System Dynamics
BODIES ORBITS EPHEMERIDES TOOLS PHYSICAL DATA DISCOVERY FAQ SITE MAP
IMPORTANT: The SSD Announcement email list is now available. Major changes are coming in the near future, including possible hostname and/or URL changes. To be notified of such changes, subscribe to this email list.

Please visit this page for more details.


JPL Small-Body Database Browser
Search: [ help ]  
136267 (2003 YR80)
Classification: Main-belt Asteroid          SPK-ID: 2136267
Ephemeris | Orbit Diagram | Orbital Elements | Mission Design | Physical Parameters | Discovery Circumstances | Close-Approach Data ]

[ show orbit diagram ]
Orbital Elements at Epoch 2458600.5 (2019-Apr-27.0) TDB
Reference: JPL 24 (heliocentric ecliptic J2000)
 Element Value Uncertainty (1-sigma)   Units 
e .1758780731453489 4.4021e-08  
a 3.143557500210108 2.8456e-08 au
q 2.590674664251545 1.3728e-07 au
i 8.928583040261191 4.8717e-06 deg
node 311.978421322643 3.3505e-05 deg
peri 225.608281029668 3.6548e-05 deg
M 224.050226168761 1.621e-05 deg
tp 2459369.287880789707
(2021-Jun-03.78788079)
9.7322e-05 TDB
period 2035.778576784207
5.57
2.7643e-05
7.568e-08
d
yr
n .1768365204867563 2.4012e-09 deg/d
Q 3.696440336168672 3.3461e-08 au
  Orbit Determination Parameters
   # obs. used (total)      728  
   data-arc span      6223 days (17.04 yr)  
   first obs. used      2002-11-14  
   last obs. used      2019-11-28  
   planetary ephem.      DE431  
   SB-pert. ephem.      SB431-N16  
   condition code      0  
   norm. resid. RMS      .52866  
   source      ORB  
   producer      Otto Matic  
   solution date      2019-Dec-04 12:21:36  

Additional Information
 Earth MOID = 1.60553 au 
 Jupiter MOID = 1.379 au 
 T_jup = 3.167 
[ show covariance matrix ]

Ephemeris | Orbit Diagram | Orbital Elements | Mission Design | Physical Parameters | Discovery Circumstances | Close-Approach Data ]

Physical Parameter Table
Parameter Symbol Value Units Sigma Reference Notes
absolute magnitude H 14.4   n/a MPO417719  
diameter diameter 10.382 km 0.083 urn:nasa:pds:neowise_diameters_albedos::2.0[mainbelt] (http://adsabs.harvard.edu/abs/2011ApJ...741...68M)  
geometric albedo albedo 0.030   0.003 urn:nasa:pds:neowise_diameters_albedos::2.0[mainbelt] (http://adsabs.harvard.edu/abs/2011ApJ...741...68M)  

136267 (2003 YR80)          Discovered 2003-Dec-18 by LINEAR at Socorro
Reference: 20060907/Numbers.arcLast Updated: 2006-09-10

[ hide close-approach data ]
Close-Approach Data   ...sorted by Date/Time (TDB)
Date/Time (TDB) Time Uncertainty
(days_HH:MM)
Body Nominal Distance (au) Minimum Distance (au) Maximum Distance (au) V-relative (km/s) V-infinity (km/s) JD (TDB) Time Uncertainty (minutes) Semi-major axis (km) Semi-minor axis (km) range-LOV angle (deg) N-sigma BP Orbit Ref. Reference Modified
1941-Jun-07 10:22 00:04 Jupiter 1.883928233781 1.88392568148655 1.88393078607576 2.63827045094902 2.46196305293714 2430152.932241139 3.94396536137845 172.465998783331 26.2447889372395 82.9672284670799 1131672.11173368 T 24 CATAB v2.0f-lin.ifort 2019-Dec-04 12:21:52 2019-Dec-04 12:21
1951-Sep-07 11:33 00:03 Jupiter 1.45004042481077 1.45003894422079 1.45004190791893 1.58544340460297 1.15989501308192 2433896.981356760 3.27036185368414 4532.8684563147 86.4775170279433 -83.9863035927112 2170991.0544184 T 24 CATAB v2.0f-lin.ifort 2019-Dec-04 12:21:52 2019-Dec-04 12:21
1962-Mar-16 22:25 00:02 Jupiter 1.52230323626848 1.52230183100445 1.52230464157579 2.76370900852406 2.55446088456779 2437740.434003892 2.25096301632103 462.449427757324 10.7484139103991 83.3921721878408 1584478.0610927 T 24 CATAB v2.0f-lin.ifort 2019-Dec-04 12:21:52 2019-Dec-04 12:21
2036-Sep-30 20:42 < 00:01 Jupiter 1.97791482096852 1.97791412586535 1.97791551607157 3.45824529392548 3.33211347901497 2464967.362811895 0.998245591800627 62.6623716528961 26.6090564314888 87.6805400747736 2075415.87345555 T 24 CATAB v2.0f-lin.ifort 2019-Dec-04 12:21:52 2019-Dec-04 12:21
2047-Jan-11 06:06 00:02 Jupiter 1.52934439092996 1.52934353520656 1.52934524669211 0.999246011295992 n/a 2468721.754198450 1.81307405656514 656.17922005807 34.5698295871103 -87.811991396115 6611216.4470021 F 24 CATAB v2.0f-lin.ifort 2019-Dec-04 12:21:52 2019-Dec-04 12:21
2057-Jun-17 22:35 00:02 Jupiter 1.46420953881523 1.46420853234666 1.46421054532043 2.46915890585921 2.22256084554439 2472532.441150459 2.10002699296014 445.02599637709 22.7125251566193 86.5481036871961 1335764.12747452 T 24 CATAB v2.0f-lin.ifort 2019-Dec-04 12:21:52 2019-Dec-04 12:21
2067-Dec-24 03:37 00:03 Jupiter 1.96773865455144 1.96773637050399 1.96774093860582 3.79151550083628 3.67623179720947 2476373.650897746 2.671000997378 227.761330219198 29.0507219405328 63.7052093328446 2033857.73724946 T 24 CATAB v2.0f-lin.ifort 2019-Dec-04 12:21:52 2019-Dec-04 12:21
2142-May-19 16:35 00:07 Jupiter 1.60485946684594 1.60485637396428 1.60486256438895 1.05006433334391 0.216939872328014 2503548.190914741 7.17331583978788 165254.417362296 1426.95866226957 5.46561141833075 1561747.77616805 T 24 CATAB v2.0f-lin.ifort 2019-Dec-04 12:21:52 2019-Dec-04 12:21
2152-Sep-18 18:23 00:07 Jupiter 1.43169927198212 1.43169791602453 1.43170062835037 2.06145983334539 1.75110702607865 2507323.265778266 6.51423742636245 1408.68586337649 90.0679758152538 -84.1880781682946 975160.484865383 T 24 CATAB v2.0f-lin.ifort 2019-Dec-04 12:21:52 2019-Dec-04 12:21
2163-Mar-23 22:48 00:07 Jupiter 1.84819206891572 1.84818644357932 1.84819769432566 3.5347761788628 3.40265291576168 2511161.449926845 6.96849832147666 661.180607610607 28.7922203933455 68.1777230583442 1758512.318103 T 24 CATAB v2.0f-lin.ifort 2019-Dec-04 12:21:52 2019-Dec-04 12:21
Ephemeris | Orbit Diagram | Orbital Elements | Mission Design | Physical Parameters | Discovery Circumstances | Close-Approach Data ]
ABOUT SSD CREDITS/AWARDS PRIVACY/COPYRIGHT GLOSSARY LINKS
FirstGov 2019-Dec-10 00:42 UT
(server date/time)  
NASA Home Page
Site Manager:   Ryan S. Park
Webmaster  Alan B. Chamberlin